Location: Newark
(25.0000°N, 73.5000°E)
Time: 04:29:18
(UTC+00:00)

ISS - Pass Details

Date: 26 June 2021
Orbit: 419 x 421 km, 51.6° (Epoch: 03 August)

Event Time Altitude Azimuth Distance (km) Brightness Sun altitude
Exits shadow 23:07:31 - 299° (WNW) 1,558 -1.1 -14.7°
Reaches altitude 10° 23:08:03 10° 308° (NW) 1,494 -1.1 -14.6°
Maximum altitude 23:08:49 11° 321° (NW) 1,459 -1.1 -14.5°
Drops below altitude 10° 23:09:36 10° 334° (NNW) 1,495 -0.8 -14.3°
Sets 23:13:16 0° 16° (NNE) 2,360 0.9 -13.6°
